Location: Westminster
(33.3626°N, 96.4619°W)
Time: 13:39:01
(UTC+00:00)

Cosmos 1763 Rocket - Pass Details

Date: 09 July 2022
Orbit: 732 x 780 km, 74.0° (Epoch: 18 August)

Event Time Altitude Azimuth Distance (km) Brightness Sun altitude
Exits shadow 06:21:23 35° 15° (NNE) 1,215 4.9 -34.2°
Drops below altitude 10° 06:24:25 10° 16° (NNE) 2,321 6.7 -34.3°
Sets 06:26:49 0° 17° (NNE) 3,256 7.7 -34.3°
